Time,TemperatureF,DewpointF,PressureIn,WindDirection,WindDirectionDegrees,WindSpeedMPH,WindSpeedGustMPH,Humidity,HourlyPrecipIn,Conditions,Clouds,dailyrainin,SoftwareType,DateUTC
2013-02-03 00:01:00,10.9,6.8,30.73,ESE,111,1.0,3.0,83,0.00,,,0.01,meteohub,2013-02-03 07:01:00,
2013-02-03 00:06:00,10.8,6.4,30.73,ESE,113,1.0,4.0,82,0.00,,,0.01,meteohub,2013-02-03 07:06:00,
2013-02-03 00:11:00,10.8,6.8,30.73,East,84,2.0,4.0,84,0.00,,,0.01,meteohub,2013-02-03 07:11:00,
2013-02-03 00:16:00,10.6,6.4,30.73,ESE,123,2.0,4.0,83,0.00,,,0.01,meteohub,2013-02-03 07:16:00,
2013-02-03 00:21:00,10.2,6.1,30.73,ESE,111,2.0,4.0,83,0.00,,,0.01,meteohub,2013-02-03 07:21:00,
2013-02-03 00:26:00,10.4,6.6,30.73,East,86,0.0,5.0,84,0.00,,,0.01,meteohub,2013-02-03 07:26:00,
2013-02-03 00:31:00,10.6,7.0,30.72,East,94,1.0,5.0,85,0.00,,,0.01,meteohub,2013-02-03 07:31:00,
2013-02-03 00:36:00,10.2,6.1,30.72,East,92,1.0,4.0,83,0.00,,,0.01,meteohub,2013-02-03 07:36:00,
2013-02-03 00:41:00,10.4,7.0,30.72,NE,40,3.0,5.0,86,0.00,,,0.01,meteohub,2013-02-03 07:41:00,
2013-02-03 00:46:00,10.8,6.6,30.72,ENE,60,1.0,5.0,83,0.00,,,0.01,meteohub,2013-02-03 07:46:00,
2013-02-03 00:51:00,10.9,7.0,30.71,ESE,117,4.0,5.0,84,0.00,,,0.01,meteohub,2013-02-03 07:51:00,
2013-02-03 00:56:00,11.1,7.2,30.71,SE,124,1.0,5.0,84,0.00,,,0.01,meteohub,2013-02-03 07:56:00,
2013-02-03 01:01:00,11.1,6.6,30.71,SE,124,2.0,5.0,82,0.00,,,0.01,meteohub,2013-02-03 08:01:00,
2013-02-03 01:07:00,10.8,6.6,30.71,ENE,65,1.0,4.0,83,0.00,,,0.01,meteohub,2013-02-03 08:07:00,
2013-02-03 01:12:00,10.6,6.4,30.71,East,88,1.0,4.0,83,0.00,,,0.01,meteohub,2013-02-03 08:12:00,
2013-02-03 01:17:00,10.2,6.1,30.71,ESE,109,1.0,4.0,83,0.00,,,0.01,meteohub,2013-02-03 08:17:00,
2013-02-03 01:22:00,9.9,5.7,30.71,East,91,1.0,3.0,83,0.00,,,0.01,meteohub,2013-02-03 08:22:00,
2013-02-03 01:27:00,9.9,6.3,30.71,NE,45,3.0,3.0,85,0.00,,,0.01,meteohub,2013-02-03 08:27:00,
2013-02-03 01:32:00,9.9,6.3,30.70,NE,54,1.0,6.0,85,0.00,,,0.01,meteohub,2013-02-03 08:32:00,
2013-02-03 01:37:00,9.9,6.1,30.70,ESE,108,2.0,6.0,84,0.00,,,0.01,meteohub,2013-02-03 08:37:00,
2013-02-03 01:42:00,9.7,5.9,30.70,NE,46,4.0,6.0,84,0.00,,,0.01,meteohub,2013-02-03 08:42:00,
2013-02-03 01:47:00,9.7,6.1,30.70,ESE,111,1.0,4.0,85,0.00,,,0.01,meteohub,2013-02-03 08:47:00,
2013-02-03 01:52:00,9.5,5.7,30.70,East,90,1.0,4.0,84,0.00,,,0.01,meteohub,2013-02-03 08:52:00,
2013-02-03 01:57:00,9.3,5.5,30.69,ENE,67,1.0,4.0,84,0.00,,,0.01,meteohub,2013-02-03 08:57:00,
2013-02-03 02:02:00,9.0,5.2,30.69,NE,56,2.0,3.0,84,0.00,,,0.01,meteohub,2013-02-03 09:02:00,
2013-02-03 02:07:00,9.1,5.7,30.69,ESE,113,2.0,4.0,86,0.00,,,0.01,meteohub,2013-02-03 09:07:00,
2013-02-03 02:12:00,9.0,5.7,30.69,East,94,0.0,4.0,86,0.00,,,0.01,meteohub,2013-02-03 09:12:00,
2013-02-03 02:17:00,9.0,5.4,30.69,SE,124,1.0,4.0,85,0.00,,,0.01,meteohub,2013-02-03 09:17:00,
2013-02-03 02:22:00,8.6,4.5,30.69,ESE,122,3.0,3.0,83,0.00,,,0.01,meteohub,2013-02-03 09:22:00,
2013-02-03 02:27:00,8.2,4.5,30.69,ESE,119,2.0,4.0,84,0.00,,,0.01,meteohub,2013-02-03 09:27:00,
2013-02-03 02:32:00,8.2,4.6,30.69,ESE,119,3.0,4.0,85,0.00,,,0.01,meteohub,2013-02-03 09:32:00,
2013-02-03 02:37:00,9.1,6.1,30.68,ESE,111,1.0,4.0,87,0.00,,,0.01,meteohub,2013-02-03 09:37:00,
2013-02-03 02:42:00,9.1,5.5,30.68,ENE,61,3.0,4.0,85,0.00,,,0.01,meteohub,2013-02-03 09:42:00,
2013-02-03 02:47:00,9.3,5.9,30.69,ESE,102,1.0,4.0,86,0.00,,,0.01,meteohub,2013-02-03 09:47:00,
2013-02-03 02:52:00,9.3,5.5,30.68,East,88,2.0,4.0,84,0.00,,,0.01,meteohub,2013-02-03 09:52:00,
2013-02-03 02:57:00,9.1,5.4,30.68,NE,49,1.0,3.0,84,0.00,,,0.01,meteohub,2013-02-03 09:57:00,
2013-02-03 03:02:00,9.1,5.4,30.68,NE,44,1.0,3.0,84,0.00,,,0.01,meteohub,2013-02-03 10:02:00,
2013-02-03 03:07:00,9.5,6.4,30.67,NE,42,2.0,3.0,87,0.00,,,0.01,meteohub,2013-02-03 10:07:00,
2013-02-03 03:12:00,9.9,6.1,30.67,East,101,1.0,6.0,84,0.00,,,0.01,meteohub,2013-02-03 10:12:00,
2013-02-03 03:17:00,9.7,5.9,30.67,ESE,103,1.0,6.0,84,0.00,,,0.01,meteohub,2013-02-03 10:17:00,
2013-02-03 03:22:00,9.3,5.2,30.67,ESE,103,2.0,6.0,83,0.00,,,0.01,meteohub,2013-02-03 10:22:00,
2013-02-03 03:27:00,9.1,5.4,30.67,ESE,120,0.0,3.0,84,0.00,,,0.01,meteohub,2013-02-03 10:27:00,
2013-02-03 03:32:00,9.1,5.5,30.67,ESE,115,1.0,4.0,85,0.00,,,0.01,meteohub,2013-02-03 10:32:00,
2013-02-03 03:37:00,9.3,5.7,30.66,SE,129,1.0,4.0,85,0.00,,,0.01,meteohub,2013-02-03 10:37:00,
2013-02-03 03:42:00,9.5,5.9,30.66,NE,53,2.0,4.0,85,0.00,,,0.01,meteohub,2013-02-03 10:42:00,
2013-02-03 03:47:00,9.3,5.2,30.66,SE,124,2.0,4.0,83,0.00,,,0.01,meteohub,2013-02-03 10:47:00,
2013-02-03 03:52:00,9.3,5.5,30.66,NE,55,1.0,3.0,84,0.00,,,0.01,meteohub,2013-02-03 10:52:00,
2013-02-03 03:57:00,9.3,5.5,30.66,SE,125,3.0,3.0,84,0.00,,,0.01,meteohub,2013-02-03 10:57:00,
2013-02-03 04:02:00,9.3,5.7,30.65,SE,125,1.0,4.0,85,0.00,,,0.01,meteohub,2013-02-03 11:02:00,
2013-02-03 04:07:00,9.7,6.1,30.65,ESE,121,3.0,4.0,85,0.00,,,0.01,meteohub,2013-02-03 11:07:00,
2013-02-03 04:12:00,10.0,6.3,30.65,ESE,108,2.0,4.0,84,0.00,,,0.01,meteohub,2013-02-03 11:12:00,
2013-02-03 04:17:00,10.2,6.6,30.65,NE,51,1.0,4.0,85,0.00,,,0.01,meteohub,2013-02-03 11:17:00,
2013-02-03 04:22:00,10.8,7.2,30.65,ESE,114,1.0,4.0,85,0.00,,,0.01,meteohub,2013-02-03 11:22:00,
2013-02-03 04:27:00,10.8,6.4,30.65,ESE,114,2.0,4.0,82,0.00,,,0.01,meteohub,2013-02-03 11:27:00,
2013-02-03 04:32:00,10.6,6.3,30.65,ESE,111,2.0,4.0,82,0.00,,,0.01,meteohub,2013-02-03 11:32:00,
2013-02-03 04:37:00,10.8,6.6,30.64,ESE,115,1.0,4.0,83,0.00,,,0.01,meteohub,2013-02-03 11:37:00,
2013-02-03 04:42:00,10.8,6.4,30.64,ESE,115,2.0,4.0,82,0.00,,,0.01,meteohub,2013-02-03 11:42:00,
2013-02-03 04:47:00,10.8,6.4,30.64,ESE,107,1.0,4.0,82,0.00,,,0.01,meteohub,2013-02-03 11:47:00,
2013-02-03 04:52:00,10.8,6.6,30.64,NE,56,1.0,3.0,83,0.00,,,0.01,meteohub,2013-02-03 11:52:00,
2013-02-03 04:57:00,10.6,6.3,30.64,SE,127,2.0,3.0,82,0.00,,,0.01,meteohub,2013-02-03 11:57:00,
2013-02-03 05:02:00,10.6,6.6,30.64,NE,35,4.0,4.0,84,0.00,,,0.01,meteohub,2013-02-03 12:02:00,
2013-02-03 05:07:00,10.8,6.6,30.63,ESE,119,3.0,5.0,83,0.00,,,0.01,meteohub,2013-02-03 12:07:00,
2013-02-03 05:12:00,10.8,6.8,30.63,ESE,109,1.0,5.0,84,0.00,,,0.01,meteohub,2013-02-03 12:12:00,
2013-02-03 05:17:00,10.9,6.8,30.64,East,80,1.0,5.0,83,0.00,,,0.01,meteohub,2013-02-03 12:17:00,
2013-02-03 05:22:00,11.1,7.0,30.63,East,83,2.0,4.0,83,0.00,,,0.01,meteohub,2013-02-03 12:22:00,
2013-02-03 05:27:00,10.9,6.6,30.63,ESE,110,2.0,4.0,82,0.00,,,0.01,meteohub,2013-02-03 12:27:00,
2013-02-03 05:32:00,10.9,6.6,30.63,ENE,61,3.0,4.0,82,0.00,,,0.01,meteohub,2013-02-03 12:32:00,
2013-02-03 05:37:00,10.9,6.3,30.63,ESE,108,2.0,4.0,81,0.00,,,0.01,meteohub,2013-02-03 12:37:00,
2013-02-03 05:42:00,10.9,6.6,30.63,East,82,1.0,4.0,82,0.00,,,0.01,meteohub,2013-02-03 12:42:00,
2013-02-03 05:47:00,11.3,7.3,30.63,ENE,58,0.0,4.0,84,0.00,,,0.01,meteohub,2013-02-03 12:47:00,
2013-02-03 05:52:00,11.7,7.0,30.62,ESE,103,1.0,4.0,81,0.00,,,0.01,meteohub,2013-02-03 12:52:00,
2013-02-03 05:57:00,11.5,6.8,30.63,East,83,1.0,4.0,81,0.00,,,0.01,meteohub,2013-02-03 12:57:00,
2013-02-03 06:02:00,11.1,6.1,30.63,East,82,2.0,4.0,80,0.00,,,0.01,meteohub,2013-02-03 13:02:00,
2013-02-03 06:07:00,10.9,6.6,30.62,NE,45,3.0,4.0,82,0.00,,,0.01,meteohub,2013-02-03 13:07:00,
2013-02-03 06:12:00,10.9,6.8,30.63,NE,51,1.0,5.0,83,0.00,,,0.01,meteohub,2013-02-03 13:12:00,
2013-02-03 06:17:00,10.9,6.6,30.63,ESE,104,1.0,5.0,82,0.00,,,0.01,meteohub,2013-02-03 13:17:00,
2013-02-03 06:22:00,10.8,6.1,30.63,ENE,76,1.0,5.0,81,0.00,,,0.01,meteohub,2013-02-03 13:22:00,
2013-02-03 06:27:00,10.2,5.5,30.62,NE,39,3.0,4.0,81,0.00,,,0.01,meteohub,2013-02-03 13:27:00,
2013-02-03 06:32:00,10.2,5.9,30.62,ESE,105,2.0,4.0,82,0.00,,,0.01,meteohub,2013-02-03 13:32:00,
2013-02-03 06:37:00,10.2,5.9,30.62,NE,39,4.0,5.0,82,0.00,,,0.01,meteohub,2013-02-03 13:37:00,
2013-02-03 06:42:00,10.4,6.1,30.62,NE,56,2.0,6.0,82,0.00,,,0.01,meteohub,2013-02-03 13:42:00,
2013-02-03 06:47:00,10.0,5.2,30.62,East,92,2.0,6.0,80,0.00,,,0.01,meteohub,2013-02-03 13:47:00,
2013-02-03 06:52:00,10.0,5.9,30.61,NE,50,3.0,6.0,83,0.00,,,0.01,meteohub,2013-02-03 13:52:00,
2013-02-03 06:57:00,10.2,6.4,30.61,ESE,112,1.0,7.0,84,0.00,,,0.01,meteohub,2013-02-03 13:57:00,
2013-02-03 07:02:00,10.2,6.1,30.61,NE,49,1.0,7.0,83,0.00,,,0.01,meteohub,2013-02-03 14:02:00,
2013-02-03 07:07:00,10.0,5.2,30.61,ESE,122,2.0,5.0,80,0.00,,,0.01,meteohub,2013-02-03 14:07:00,
2013-02-03 07:12:00,9.7,5.0,30.61,ENE,76,2.0,4.0,81,0.00,,,0.01,meteohub,2013-02-03 14:12:00,
2013-02-03 07:17:00,10.0,5.9,30.61,ENE,59,2.0,5.0,83,0.00,,,0.01,meteohub,2013-02-03 14:17:00,
2013-02-03 07:22:00,10.2,5.5,30.61,NE,38,5.0,5.0,81,0.00,,,0.01,meteohub,2013-02-03 14:22:00,
2013-02-03 07:27:00,10.6,5.9,30.61,NE,40,4.0,7.0,81,0.00,,,0.01,meteohub,2013-02-03 14:27:00,
2013-02-03 07:32:00,10.8,6.1,30.61,ENE,72,1.0,7.0,81,0.00,,,0.01,meteohub,2013-02-03 14:32:00,
2013-02-03 07:37:00,10.6,5.7,30.61,ENE,74,2.0,7.0,80,0.00,,,0.01,meteohub,2013-02-03 14:37:00,
2013-02-03 07:42:00,10.6,5.7,30.61,NE,42,2.0,7.0,80,0.00,,,0.01,meteohub,2013-02-03 14:42:00,
2013-02-03 07:47:00,10.8,5.9,30.60,NE,55,1.0,9.0,80,0.00,,,0.01,meteohub,2013-02-03 14:47:00,
2013-02-03 07:52:00,10.6,5.0,30.60,ESE,107,2.0,9.0,78,0.00,,,0.01,meteohub,2013-02-03 14:52:00,
2013-02-03 07:57:00,10.6,5.4,30.60,ESE,108,1.0,9.0,79,0.00,,,0.01,meteohub,2013-02-03 14:57:00,
2013-02-03 08:02:00,10.6,4.8,30.60,ESE,105,2.0,5.0,77,0.00,,,0.01,meteohub,2013-02-03 15:02:00,
2013-02-03 08:07:00,10.6,5.4,30.59,NE,41,3.0,5.0,79,0.00,,,0.01,meteohub,2013-02-03 15:07:00,
2013-02-03 08:12:00,10.8,5.0,30.60,SE,129,1.0,5.0,77,0.00,,,0.01,meteohub,2013-02-03 15:12:00,
2013-02-03 08:18:00,10.6,5.4,30.59,NE,51,2.0,5.0,79,0.00,,,0.01,meteohub,2013-02-03 15:18:00,
2013-02-03 08:23:00,10.6,5.4,30.59,ENE,65,0.0,5.0,79,0.00,,,0.01,meteohub,2013-02-03 15:23:00,
2013-02-03 08:28:00,10.6,5.0,30.59,NE,54,0.0,4.0,78,0.00,,,0.01,meteohub,2013-02-03 15:28:00,
2013-02-03 08:33:00,10.4,4.8,30.58,ENE,59,0.0,4.0,78,0.00,,,0.01,meteohub,2013-02-03 15:33:00,
2013-02-03 08:38:00,10.0,4.3,30.58,ESE,103,1.0,3.0,77,0.00,,,0.01,meteohub,2013-02-03 15:38:00,
2013-02-03 08:43:00,10.0,4.8,30.57,ESE,103,1.0,3.0,79,0.00,,,0.01,meteohub,2013-02-03 15:43:00,
2013-02-03 08:48:00,10.8,5.2,30.57,ENE,76,0.0,3.0,78,0.00,,,0.01,meteohub,2013-02-03 15:48:00,
2013-02-03 08:53:00,11.1,5.4,30.56,NE,40,3.0,3.0,77,0.00,,,0.01,meteohub,2013-02-03 15:53:00,
2013-02-03 08:58:00,11.8,5.7,30.56,NE,55,2.0,3.0,76,0.00,,,0.01,meteohub,2013-02-03 15:58:00,
2013-02-03 09:03:00,12.6,6.1,30.56,ENE,71,1.0,4.0,75,0.00,,,0.01,meteohub,2013-02-03 16:03:00,
2013-02-03 09:08:00,13.8,7.2,30.55,ENE,76,1.0,4.0,74,0.00,,,0.01,meteohub,2013-02-03 16:08:00,
2013-02-03 09:14:00,14.9,7.5,30.55,ENE,69,2.0,2.0,72,0.00,,,0.01,meteohub,2013-02-03 16:14:00,
2013-02-03 09:19:00,16.2,7.5,30.54,ENE,69,1.0,2.0,68,0.00,,,0.01,meteohub,2013-02-03 16:19:00,
2013-02-03 09:24:00,17.1,8.1,30.54,ENE,73,1.0,2.0,67,0.00,,,0.01,meteohub,2013-02-03 16:24:00,
2013-02-03 09:29:00,18.5,8.8,30.53,ESE,107,2.0,2.0,65,0.00,,,0.01,meteohub,2013-02-03 16:29:00,
2013-02-03 09:34:00,19.9,9.7,30.53,ESE,107,2.0,3.0,64,0.00,,,0.01,meteohub,2013-02-03 16:34:00,
2013-02-03 09:39:00,21.6,9.5,30.53,ENE,59,0.0,3.0,59,0.00,,,0.01,meteohub,2013-02-03 16:39:00,
2013-02-03 09:44:00,22.8,9.9,30.52,ENE,58,0.0,3.0,57,0.00,,,0.01,meteohub,2013-02-03 16:44:00,
2013-02-03 09:49:00,24.1,8.6,30.52,South,172,1.0,3.0,51,0.00,,,0.01,meteohub,2013-02-03 16:49:00,
2013-02-03 09:54:00,25.0,9.0,30.51,NNE,33,1.0,3.0,50,0.00,,,0.01,meteohub,2013-02-03 16:54:00,
2013-02-03 09:59:00,26.1,10.0,30.51,NNE,33,0.0,3.0,50,0.00,,,0.01,meteohub,2013-02-03 16:59:00,
2013-02-03 10:04:00,27.1,9.5,30.50,North,359,2.0,3.0,47,0.00,,,0.01,meteohub,2013-02-03 17:04:00,
2013-02-03 10:09:00,28.2,9.1,30.50,East,98,3.0,3.0,44,0.00,,,0.01,meteohub,2013-02-03 17:09:00,
2013-02-03 10:14:00,29.7,8.2,30.49,SE,133,2.0,3.0,40,0.00,,,0.01,meteohub,2013-02-03 17:14:00,
2013-02-03 10:19:00,30.4,9.0,30.49,SW,230,2.0,3.0,40,0.00,,,0.01,meteohub,2013-02-03 17:19:00,
2013-02-03 10:25:00,30.9,7.7,30.49,West,263,0.0,3.0,37,0.00,,,0.01,meteohub,2013-02-03 17:25:00,
2013-02-03 10:30:00,31.6,5.2,30.48,West,263,0.0,3.0,32,0.00,,,0.01,meteohub,2013-02-03 17:30:00,
2013-02-03 10:35:00,32.7,5.4,30.48,West,263,0.0,3.0,31,0.00,,,0.01,meteohub,2013-02-03 17:35:00,
2013-02-03 10:40:00,33.6,3.2,30.48,West,263,1.0,3.0,27,0.00,,,0.01,meteohub,2013-02-03 17:40:00,
2013-02-03 10:45:00,34.5,3.2,30.48,WSW,243,1.0,3.0,26,0.00,,,0.01,meteohub,2013-02-03 17:45:00,
2013-02-03 10:50:00,34.9,2.7,30.47,WSW,242,1.0,3.0,25,0.00,,,0.01,meteohub,2013-02-03 17:50:00,
2013-02-03 10:55:00,35.2,-1.8,30.47,WSW,242,2.0,3.0,20,0.00,,,0.01,meteohub,2013-02-03 17:55:00,
2013-02-03 11:00:00,36.0,0.9,30.47,WSW,255,2.0,4.0,22,0.00,,,0.01,meteohub,2013-02-03 18:00:00,
2013-02-03 11:05:00,36.1,-2.2,30.46,South,172,2.0,5.0,19,0.00,,,0.01,meteohub,2013-02-03 18:05:00,
2013-02-03 11:10:00,36.9,-0.4,30.46,NNW,327,2.0,5.0,20,0.00,,,0.01,meteohub,2013-02-03 18:10:00,
2013-02-03 11:15:00,37.4,3.9,30.46,SW,228,2.0,5.0,24,0.00,,,0.01,meteohub,2013-02-03 18:15:00,
2013-02-03 11:20:00,37.8,2.3,30.46,WSW,243,2.0,5.0,22,0.00,,,0.01,meteohub,2013-02-03 18:20:00,
2013-02-03 11:25:00,38.3,-4.0,30.45,SW,217,3.0,4.0,16,0.00,,,0.01,meteohub,2013-02-03 18:25:00,
2013-02-03 11:31:00,38.7,-1.3,30.45,WSW,239,2.0,4.0,18,0.00,,,0.01,meteohub,2013-02-03 18:31:00,
2013-02-03 11:36:00,39.0,-0.9,30.44,WSW,249,1.0,4.0,18,0.00,,,0.01,meteohub,2013-02-03 18:36:00,
2013-02-03 11:41:00,39.4,-4.5,30.43,SW,219,3.0,4.0,15,0.00,,,0.01,meteohub,2013-02-03 18:41:00,
2013-02-03 11:46:00,39.4,-5.8,30.43,SSW,197,2.0,7.0,14,0.00,,,0.01,meteohub,2013-02-03 18:46:00,
2013-02-03 11:51:00,39.6,-5.8,30.42,SSE,158,3.0,7.0,14,0.00,,,0.01,meteohub,2013-02-03 18:51:00,
2013-02-03 11:56:00,39.6,-7.2,30.42,SW,228,5.0,11.0,13,0.00,,,0.01,meteohub,2013-02-03 18:56:00,
2013-02-03 12:01:00,40.1,3.2,30.41,NW,315,3.0,11.0,21,0.00,,,0.01,meteohub,2013-02-03 19:01:00,
2013-02-03 12:06:00,40.6,0.5,30.41,SW,217,2.0,8.0,18,0.00,,,0.01,meteohub,2013-02-03 19:06:00,
2013-02-03 12:11:00,40.6,1.6,30.41,SW,236,2.0,7.0,19,0.00,,,0.01,meteohub,2013-02-03 19:11:00,
2013-02-03 12:16:00,40.1,4.3,30.41,WNW,292,2.0,8.0,22,0.00,,,0.01,meteohub,2013-02-03 19:16:00,
2013-02-03 12:21:00,39.6,5.7,30.40,SW,230,3.0,8.0,24,0.00,,,0.01,meteohub,2013-02-03 19:21:00,
2013-02-03 12:26:00,39.2,2.5,30.40,WSW,237,1.0,8.0,21,0.00,,,0.01,meteohub,2013-02-03 19:26:00,
2013-02-03 12:31:00,39.4,3.7,30.40,SW,226,2.0,5.0,22,0.00,,,0.01,meteohub,2013-02-03 19:31:00,
2013-02-03 12:37:00,39.4,1.6,30.39,WNW,300,2.0,5.0,20,0.00,,,0.01,meteohub,2013-02-03 19:37:00,
2013-02-03 12:42:00,38.8,2.3,30.39,SW,228,2.0,6.0,21,0.00,,,0.01,meteohub,2013-02-03 19:42:00,
2013-02-03 12:47:00,38.8,2.3,30.38,West,281,2.0,6.0,21,0.00,,,0.01,meteohub,2013-02-03 19:47:00,
2013-02-03 12:52:00,39.0,2.3,30.38,WNW,282,2.0,6.0,21,0.00,,,0.01,meteohub,2013-02-03 19:52:00,
2013-02-03 12:57:00,39.4,1.6,30.38,NW,305,2.0,5.0,20,0.00,,,0.01,meteohub,2013-02-03 19:57:00,
2013-02-03 13:02:00,39.6,5.7,30.38,SW,234,2.0,5.0,24,0.00,,,0.01,meteohub,2013-02-03 20:02:00,
2013-02-03 13:07:00,38.8,4.1,30.37,WNW,298,3.0,6.0,23,0.00,,,0.01,meteohub,2013-02-03 20:07:00,
2013-02-03 13:12:00,38.3,4.6,30.37,SW,229,4.0,7.0,24,0.00,,,0.01,meteohub,2013-02-03 20:12:00,
2013-02-03 13:17:00,37.9,6.1,30.37,WSW,246,2.0,7.0,26,0.00,,,0.01,meteohub,2013-02-03 20:17:00,
2013-02-03 13:22:00,37.8,5.0,30.37,WNW,294,3.0,7.0,25,0.00,,,0.01,meteohub,2013-02-03 20:22:00,
2013-02-03 13:27:00,37.2,4.6,30.37,WSW,250,5.0,8.0,25,0.00,,,0.01,meteohub,2013-02-03 20:27:00,
2013-02-03 13:32:00,36.1,5.4,30.37,WNW,284,8.0,8.0,27,0.00,,,0.01,meteohub,2013-02-03 20:32:00,
2013-02-03 13:37:00,35.4,4.8,30.37,SW,221,2.0,10.0,27,0.00,,,0.01,meteohub,2013-02-03 20:37:00,
2013-02-03 13:42:00,35.1,5.2,30.36,West,265,3.0,10.0,28,0.00,,,0.01,meteohub,2013-02-03 20:42:00,
2013-02-03 13:47:00,34.7,5.7,30.36,West,271,1.0,10.0,29,0.00,,,0.01,meteohub,2013-02-03 20:47:00,
2013-02-03 13:52:00,34.3,5.4,30.36,WSW,258,2.0,9.0,29,0.00,,,0.01,meteohub,2013-02-03 20:52:00,
2013-02-03 13:57:00,33.6,5.5,30.36,WSW,247,4.0,9.0,30,0.00,,,0.01,meteohub,2013-02-03 20:57:00,
2013-02-03 14:02:00,33.4,5.4,30.36,West,260,3.0,9.0,30,0.00,,,0.01,meteohub,2013-02-03 21:02:00,
2013-02-03 14:07:00,33.6,4.8,30.36,WNW,289,2.0,8.0,29,0.00,,,0.01,meteohub,2013-02-03 21:07:00,
2013-02-03 14:12:00,33.8,5.7,30.35,West,271,3.0,9.0,30,0.00,,,0.01,meteohub,2013-02-03 21:12:00,
2013-02-03 14:17:00,34.0,5.7,30.36,WSW,248,3.0,9.0,30,0.00,,,0.01,meteohub,2013-02-03 21:17:00,
2013-02-03 14:22:00,33.8,5.7,30.35,SW,231,5.0,8.0,30,0.00,,,0.01,meteohub,2013-02-03 21:22:00,
2013-02-03 14:27:00,33.6,4.8,30.35,WNW,292,7.0,11.0,29,0.00,,,0.01,meteohub,2013-02-03 21:27:00,
2013-02-03 14:32:00,33.4,5.4,30.36,SSW,205,0.0,11.0,30,0.00,,,0.01,meteohub,2013-02-03 21:32:00,
2013-02-03 14:37:00,33.8,6.4,30.35,WSW,242,1.0,11.0,31,0.00,,,0.01,meteohub,2013-02-03 21:37:00,
2013-02-03 14:42:00,34.2,5.9,30.35,North,352,2.0,11.0,30,0.00,,,0.01,meteohub,2013-02-03 21:42:00,
2013-02-03 14:47:00,34.5,6.3,30.36,WNW,282,2.0,8.0,30,0.00,,,0.01,meteohub,2013-02-03 21:47:00,
2013-02-03 14:52:00,34.5,4.8,30.36,SSW,211,5.0,9.0,28,0.00,,,0.01,meteohub,2013-02-03 21:52:00,
2013-02-03 14:57:00,33.6,3.9,30.36,WSW,251,2.0,9.0,28,0.00,,,0.01,meteohub,2013-02-03 21:57:00,
2013-02-03 15:02:00,33.1,5.0,30.37,SW,226,4.0,13.0,30,0.00,,,0.01,meteohub,2013-02-03 22:02:00,
2013-02-03 15:07:00,32.2,4.3,30.36,SSE,154,7.0,13.0,30,0.00,,,0.01,meteohub,2013-02-03 22:07:00,
2013-02-03 15:12:00,31.6,4.5,30.36,SW,225,4.0,11.0,31,0.00,,,0.01,meteohub,2013-02-03 22:12:00,
2013-02-03 15:17:00,31.5,3.6,30.36,WSW,244,8.0,11.0,30,0.00,,,0.01,meteohub,2013-02-03 22:17:00,
2013-02-03 15:22:00,31.6,3.7,30.36,SW,229,3.0,11.0,30,0.00,,,0.01,meteohub,2013-02-03 22:22:00,
2013-02-03 15:27:00,32.0,4.1,30.36,WSW,245,1.0,10.0,30,0.00,,,0.01,meteohub,2013-02-03 22:27:00,
2013-02-03 15:32:00,32.4,3.6,30.37,WNW,287,0.0,11.0,29,0.00,,,0.01,meteohub,2013-02-03 22:32:00,
2013-02-03 15:37:00,32.4,3.6,30.37,WNW,290,7.0,11.0,29,0.00,,,0.01,meteohub,2013-02-03 22:37:00,
2013-02-03 15:42:00,32.4,4.5,30.38,West,281,3.0,11.0,30,0.00,,,0.01,meteohub,2013-02-03 22:42:00,
2013-02-03 15:47:00,32.2,5.0,30.38,SW,229,2.0,9.0,31,0.00,,,0.01,meteohub,2013-02-03 22:47:00,
2013-02-03 15:52:00,31.8,5.4,30.37,West,278,2.0,9.0,32,0.00,,,0.01,meteohub,2013-02-03 22:52:00,
2013-02-03 15:57:00,31.6,5.2,30.38,WNW,294,1.0,9.0,32,0.00,,,0.01,meteohub,2013-02-03 22:57:00,
2013-02-03 16:02:00,31.6,4.5,30.38,SW,221,3.0,8.0,31,0.00,,,0.01,meteohub,2013-02-03 23:02:00,
2013-02-03 16:07:00,31.5,6.3,30.38,WNW,296,5.0,8.0,34,0.00,,,0.01,meteohub,2013-02-03 23:07:00,
2013-02-03 16:12:00,31.5,5.0,30.38,WNW,295,4.0,7.0,32,0.00,,,0.01,meteohub,2013-02-03 23:12:00,
2013-02-03 16:17:00,31.1,4.6,30.38,WSW,246,5.0,7.0,32,0.00,,,0.01,meteohub,2013-02-03 23:17:00,
2013-02-03 16:22:00,30.7,5.0,30.38,WSW,248,1.0,7.0,33,0.00,,,0.01,meteohub,2013-02-03 23:22:00,
2013-02-03 16:28:00,30.6,4.8,30.38,WSW,244,4.0,7.0,33,0.00,,,0.01,meteohub,2013-02-03 23:28:00,
2013-02-03 16:33:00,30.6,4.8,30.38,West,264,2.0,7.0,33,0.00,,,0.01,meteohub,2013-02-03 23:33:00,
2013-02-03 16:38:00,30.4,4.6,30.38,WNW,294,3.0,7.0,33,0.00,,,0.01,meteohub,2013-02-03 23:38:00,
2013-02-03 16:43:00,30.2,4.5,30.37,WSW,255,2.0,8.0,33,0.00,,,0.01,meteohub,2013-02-03 23:43:00,
2013-02-03 16:48:00,30.0,5.0,30.37,NW,304,4.0,8.0,34,0.00,,,0.01,meteohub,2013-02-03 23:48:00,
2013-02-03 16:53:00,29.8,4.8,30.37,West,273,3.0,9.0,34,0.00,,,0.01,meteohub,2013-02-03 23:53:00,
2013-02-03 16:58:00,29.8,4.8,30.37,SW,233,2.0,9.0,34,0.00,,,0.01,meteohub,2013-02-03 23:58:00,
2013-02-03 17:03:00,29.5,5.2,30.37,West,275,5.0,8.0,35,0.00,,,0.01,meteohub,2013-02-04 00:03:00,
2013-02-03 17:08:00,29.1,5.5,30.37,West,270,2.0,8.0,36,0.00,,,0.00,meteohub,2013-02-04 00:08:00,
2013-02-03 17:13:00,28.8,5.2,30.37,West,264,1.0,8.0,36,0.00,,,0.00,meteohub,2013-02-04 00:13:00,
2013-02-03 17:18:00,28.2,5.4,30.37,WSW,248,1.0,7.0,37,0.00,,,0.00,meteohub,2013-02-04 00:18:00,
2013-02-03 17:24:00,27.9,5.5,30.37,WNW,286,1.0,5.0,38,0.00,,,0.00,meteohub,2013-02-04 00:24:00,
2013-02-03 17:29:00,27.5,5.7,30.37,SSW,209,1.0,5.0,39,0.00,,,0.00,meteohub,2013-02-04 00:29:00,
2013-02-03 17:34:00,27.1,4.8,30.37,SW,230,2.0,4.0,38,0.00,,,0.00,meteohub,2013-02-04 00:34:00,
2013-02-03 17:39:00,27.0,4.6,30.37,SW,228,1.0,4.0,38,0.00,,,0.00,meteohub,2013-02-04 00:39:00,
2013-02-03 17:44:00,26.8,6.3,30.37,SW,228,0.0,4.0,41,0.00,,,0.00,meteohub,2013-02-04 00:44:00,
2013-02-03 17:49:00,26.2,7.3,30.37,SW,228,1.0,4.0,44,0.00,,,0.00,meteohub,2013-02-04 00:49:00,
2013-02-03 17:54:00,25.9,8.4,30.38,SW,228,1.0,4.0,47,0.00,,,0.00,meteohub,2013-02-04 00:54:00,
2013-02-03 17:59:00,25.2,8.6,30.37,SW,228,0.0,3.0,49,0.00,,,0.00,meteohub,2013-02-04 00:59:00,
2013-02-03 18:04:00,24.6,7.7,30.38,SW,228,0.0,2.0,48,0.00,,,0.00,meteohub,2013-02-04 01:04:00,
2013-02-03 18:10:00,23.7,8.2,30.38,SW,228,2.0,2.0,51,0.00,,,0.00,meteohub,2013-02-04 01:10:00,
2013-02-03 18:15:00,22.8,8.2,30.37,SW,228,0.0,2.0,53,0.00,,,0.00,meteohub,2013-02-04 01:15:00,
2013-02-03 18:20:00,22.3,7.7,30.37,SW,228,2.0,2.0,53,0.00,,,0.00,meteohub,2013-02-04 01:20:00,
2013-02-03 18:25:00,21.7,7.2,30.37,SW,228,0.0,2.0,53,0.00,,,0.00,meteohub,2013-02-04 01:25:00,
2013-02-03 18:30:00,21.0,7.0,30.37,SW,228,0.0,2.0,54,0.00,,,0.00,meteohub,2013-02-04 01:30:00,
2013-02-03 18:35:00,20.5,7.3,30.37,SW,228,2.0,2.0,56,0.00,,,0.00,meteohub,2013-02-04 01:35:00,
2013-02-03 18:40:00,19.8,7.0,30.38,SW,228,0.0,3.0,57,0.00,,,0.00,meteohub,2013-02-04 01:40:00,
2013-02-03 18:45:00,19.6,7.2,30.38,SW,228,0.0,3.0,58,0.00,,,0.00,meteohub,2013-02-04 01:45:00,
2013-02-03 18:50:00,19.0,6.6,30.37,SW,215,2.0,3.0,58,0.00,,,0.00,meteohub,2013-02-04 01:50:00,
2013-02-03 18:55:00,18.9,6.4,30.38,SW,215,0.0,2.0,58,0.00,,,0.00,meteohub,2013-02-04 01:55:00,
2013-02-03 19:00:00,18.9,6.4,30.38,ESE,113,3.0,3.0,58,0.00,,,0.00,meteohub,2013-02-04 02:00:00,
2013-02-03 19:06:00,19.2,6.8,30.37,ESE,111,2.0,5.0,58,0.00,,,0.00,meteohub,2013-02-04 02:06:00,
2013-02-03 19:11:00,19.2,6.8,30.37,ESE,121,1.0,5.0,58,0.00,,,0.00,meteohub,2013-02-04 02:11:00,
2013-02-03 19:16:00,19.0,6.6,30.37,SE,128,2.0,5.0,58,0.00,,,0.00,meteohub,2013-02-04 02:16:00,
2013-02-03 19:21:00,19.0,6.6,30.38,ESE,123,2.0,5.0,58,0.00,,,0.00,meteohub,2013-02-04 02:21:00,
2013-02-03 19:26:00,18.9,7.0,30.38,East,97,3.0,4.0,59,0.00,,,0.00,meteohub,2013-02-04 02:26:00,
2013-02-03 19:31:00,19.0,7.2,30.37,ENE,71,1.0,4.0,59,0.00,,,0.00,meteohub,2013-02-04 02:31:00,
2013-02-03 19:36:00,19.0,7.9,30.37,ENE,71,1.0,4.0,61,0.00,,,0.00,meteohub,2013-02-04 02:36:00,
2013-02-03 19:41:00,19.0,7.5,30.38,East,100,3.0,4.0,60,0.00,,,0.00,meteohub,2013-02-04 02:41:00,
2013-02-03 19:46:00,19.0,7.2,30.39,East,82,2.0,4.0,59,0.00,,,0.00,meteohub,2013-02-04 02:46:00,
2013-02-03 19:51:00,19.0,7.2,30.39,ESE,120,1.0,4.0,59,0.00,,,0.00,meteohub,2013-02-04 02:51:00,
2013-02-03 19:56:00,18.9,7.0,30.40,NE,48,2.0,4.0,59,0.00,,,0.00,meteohub,2013-02-04 02:56:00,
2013-02-03 20:01:00,18.7,7.5,30.40,East,96,2.0,4.0,61,0.00,,,0.00,meteohub,2013-02-04 03:01:00,
2013-02-03 20:06:00,18.3,7.2,30.40,East,101,3.0,4.0,61,0.00,,,0.00,meteohub,2013-02-04 03:06:00,
2013-02-03 20:11:00,18.3,7.2,30.39,ESE,108,3.0,4.0,61,0.00,,,0.00,meteohub,2013-02-04 03:11:00,
2013-02-03 20:17:00,18.1,7.0,30.40,ESE,105,3.0,4.0,61,0.00,,,0.00,meteohub,2013-02-04 03:17:00,
2013-02-03 20:22:00,18.1,7.0,30.40,ESE,118,0.0,4.0,61,0.00,,,0.00,meteohub,2013-02-04 03:22:00,
2013-02-03 20:27:00,17.8,6.6,30.40,ESE,109,7.0,7.0,61,0.00,,,0.00,meteohub,2013-02-04 03:27:00,
2013-02-03 20:32:00,17.4,6.3,30.40,ESE,113,2.0,7.0,61,0.00,,,0.00,meteohub,2013-02-04 03:32:00,
2013-02-03 20:37:00,17.2,6.8,30.40,ESE,105,1.0,7.0,63,0.00,,,0.00,meteohub,2013-02-04 03:37:00,
2013-02-03 20:42:00,17.1,6.3,30.40,SE,139,1.0,7.0,62,0.00,,,0.00,meteohub,2013-02-04 03:42:00,
2013-02-03 20:47:00,16.9,6.4,30.40,East,96,1.0,4.0,63,0.00,,,0.00,meteohub,2013-02-04 03:47:00,
2013-02-03 20:52:00,16.7,6.3,30.40,ESE,113,2.0,4.0,63,0.00,,,0.00,meteohub,2013-02-04 03:52:00,
2013-02-03 20:57:00,16.5,6.4,30.40,ESE,106,2.0,7.0,64,0.00,,,0.00,meteohub,2013-02-04 03:57:00,
2013-02-03 21:02:00,16.5,6.4,30.40,ESE,115,4.0,7.0,64,0.00,,,0.00,meteohub,2013-02-04 04:02:00,
2013-02-03 21:07:00,16.7,6.3,30.40,ENE,60,5.0,7.0,63,0.00,,,0.00,meteohub,2013-02-04 04:07:00,
2013-02-03 21:12:00,16.5,6.4,30.40,NE,53,0.0,5.0,64,0.00,,,0.00,meteohub,2013-02-04 04:12:00,
2013-02-03 21:17:00,16.2,5.7,30.40,ESE,104,1.0,5.0,63,0.00,,,0.00,meteohub,2013-02-04 04:17:00,
2013-02-03 21:22:00,15.6,5.4,30.40,ESE,112,2.0,5.0,63,0.00,,,0.00,meteohub,2013-02-04 04:22:00,
2013-02-03 21:27:00,15.4,6.1,30.40,ENE,63,2.0,3.0,66,0.00,,,0.00,meteohub,2013-02-04 04:27:00,
2013-02-03 21:32:00,15.3,5.9,30.41,East,95,6.0,6.0,66,0.00,,,0.00,meteohub,2013-02-04 04:32:00,
2013-02-03 21:37:00,15.3,5.5,30.40,ENE,65,3.0,7.0,65,0.00,,,0.00,meteohub,2013-02-04 04:37:00,
2013-02-03 21:42:00,14.9,5.5,30.40,NE,49,6.0,7.0,66,0.00,,,0.00,meteohub,2013-02-04 04:42:00,
2013-02-03 21:47:00,14.5,5.9,30.40,NE,50,5.0,8.0,68,0.00,,,0.00,meteohub,2013-02-04 04:47:00,
2013-02-03 21:52:00,14.4,6.1,30.40,ENE,59,4.0,8.0,69,0.00,,,0.00,meteohub,2013-02-04 04:52:00,
2013-02-03 21:57:00,14.4,6.1,30.41,ENE,77,2.0,8.0,69,0.00,,,0.00,meteohub,2013-02-04 04:57:00,
2013-02-03 22:02:00,14.4,6.1,30.41,ENE,63,3.0,6.0,69,0.00,,,0.00,meteohub,2013-02-04 05:02:00,
2013-02-03 22:03:00,14.2,5.9,30.41,NE,43,4.0,6.0,69,0.00,,,0.00,meteohub,2013-02-04 05:03:00,
2013-02-03 22:05:00,14.0,5.7,30.41,NE,48,3.0,6.0,69,0.00,,,0.00,meteohub,2013-02-04 05:05:00,
2013-02-03 22:10:00,13.8,5.5,30.41,NE,52,0.0,5.0,69,0.00,,,0.00,meteohub,2013-02-04 05:10:00,
2013-02-03 22:15:00,13.5,5.5,30.42,ENE,61,2.0,5.0,70,0.00,,,0.00,meteohub,2013-02-04 05:15:00,
2013-02-03 22:21:00,13.3,5.4,30.41,NE,45,3.0,5.0,70,0.00,,,0.00,meteohub,2013-02-04 05:21:00,
2013-02-03 22:26:00,12.9,5.4,30.42,ENE,67,3.0,5.0,71,0.00,,,0.00,meteohub,2013-02-04 05:26:00,
2013-02-03 22:31:00,12.7,5.2,30.42,NE,54,2.0,5.0,71,0.00,,,0.00,meteohub,2013-02-04 05:31:00,
2013-02-03 22:36:00,12.6,5.0,30.42,ENE,63,1.0,7.0,71,0.00,,,0.00,meteohub,2013-02-04 05:36:00,
2013-02-03 22:41:00,12.6,5.0,30.42,ENE,65,4.0,7.0,71,0.00,,,0.00,meteohub,2013-02-04 05:41:00,
2013-02-03 22:46:00,12.6,5.0,30.42,NE,49,3.0,6.0,71,0.00,,,0.00,meteohub,2013-02-04 05:46:00,
2013-02-03 22:51:00,12.4,4.8,30.42,ESE,105,1.0,6.0,71,0.00,,,0.00,meteohub,2013-02-04 05:51:00,
2013-02-03 22:56:00,12.2,4.6,30.42,NE,50,3.0,6.0,71,0.00,,,0.00,meteohub,2013-02-04 05:56:00,
2013-02-03 23:01:00,12.0,4.5,30.42,NE,49,5.0,5.0,71,0.00,,,0.00,meteohub,2013-02-04 06:01:00,
2013-02-03 23:06:00,11.8,4.3,30.42,ENE,57,1.0,6.0,71,0.00,,,0.00,meteohub,2013-02-04 06:06:00,
2013-02-03 23:11:00,11.5,4.3,30.42,NE,53,3.0,6.0,72,0.00,,,0.00,meteohub,2013-02-04 06:11:00,
2013-02-03 23:16:00,11.3,4.1,30.42,NE,44,1.0,6.0,72,0.00,,,0.00,meteohub,2013-02-04 06:16:00,
2013-02-03 23:21:00,10.9,3.7,30.42,East,86,1.0,5.0,72,0.00,,,0.00,meteohub,2013-02-04 06:21:00,
2013-02-03 23:27:00,10.8,4.1,30.42,NE,44,2.0,5.0,74,0.00,,,0.00,meteohub,2013-02-04 06:27:00,
2013-02-03 23:32:00,10.2,3.4,30.41,NE,39,3.0,4.0,73,0.00,,,0.00,meteohub,2013-02-04 06:32:00,
2013-02-03 23:37:00,10.0,3.4,30.42,East,86,1.0,4.0,74,0.00,,,0.00,meteohub,2013-02-04 06:37:00,
2013-02-03 23:42:00,9.9,3.0,30.42,East,86,1.0,4.0,73,0.00,,,0.00,meteohub,2013-02-04 06:42:00,
2013-02-03 23:47:00,9.3,2.5,30.42,East,97,2.0,4.0,73,0.00,,,0.00,meteohub,2013-02-04 06:47:00,
2013-02-03 23:52:00,9.0,2.7,30.43,NE,46,1.0,4.0,75,0.00,,,0.00,meteohub,2013-02-04 06:52:00,
2013-02-03 23:57:00,9.0,2.7,30.43,East,85,1.0,3.0,75,0.00,,,0.00,meteohub,2013-02-04 06:57:00,